This demonstration page uses our WeatherBlox Daily Observations layout. Learn more.

Left ArrowRight Arrow

Hourly Observations for June 13, 2018

Temp ( °F °C ) Dew Point ( °F °C ) Humidity (%) Winds ( mph kmh ) Pressure ( in mb ) Visibility ( mi km ) Precip ( " mm )
12:56 am 00:56 Clear 66 18.9 60 15.6 81 81 NE 12 19 30.02 1017 10 16 0.00 0.00
1:56 am 01:56 Clear 65 18.3 59 15 81 81 NE 12 19 30.02 1017 10 16 0.00 0.00
2:56 am 02:56 Clear 63 17.2 59 15 87 87 ENE 8 13 30.03 1017 10 16 0.00 0.00
3:56 am 03:56 Clear 62 16.7 58 14.4 86 86 E 8 13 30.01 1016 10 16 0.00 0.00
4:56 am 04:56 Clear 60 15.6 56 13.3 86 86 ENE 8 13 30.01 1016 10 16 0.00 0.00
5:56 am 05:56 Partly Cloudy 59 15 56 13.3 90 90 E 5 7 30.05 1018 10 16 0.00 0.00
6:56 am 06:56 Mostly Sunny 60 15.6 56 13.3 86 86 E 6 9 30.07 1018 10 16 0.00 0.00
7:56 am 07:56 Sunny 62 16.7 56 13.3 80 80 E 5 7 30.06 1018 10 16 0.00 0.00
8:55 am 08:55 Sunny 66 18.9 57 13.9 73 73 ESE 17 28 30.04 1017 10 16 0.00 0.00
9:57 am 09:57 Sunny 70 21.1 58 14.4 66 66 ESE 15 24 30.07 1018 10 16 0.00 0.00
10:57 am 10:57 undefined N/A N/A N/A undefined N/A N/A N/A 0.00 0.00
11:57 am 11:57 undefined N/A N/A N/A undefined N/A N/A N/A 0.00 0.00
12:57 pm 12:57 undefined 78 25.6 56 13.3 47 47 SE 22 35 30.01 1016 N/A 0.00 0.00
1:57 pm 13:57 Mostly Sunny 80 26.7 55 12.8 42 42 SE 23 37 29.99 1016 9 14 0.00 0.00
2:57 pm 14:57 Sunny 81 27.2 60 15.6 49 49 SE 20 31 29.95 1014 10 16 0.00 0.00
3:57 pm 15:57 Hazy 81 27.2 61 16.1 51 51 SE 18 30 29.90 1013 6 10 0.00 0.00
4:57 pm 16:57 Sunny 82 27.8 62 16.7 51 51 SSE 16 26 29.91 1013 10 16 0.00 0.00
5:57 pm 17:57 Sunny 81 27.2 62 16.7 53 53 SSE 21 33 29.89 1012 10 16 0.00 0.00
6:57 pm 18:57 Sunny 80 26.7 63 17.2 56 56 SE 20 31 29.88 1012 10 16 0.00 0.00
7:57 pm 19:57 Sunny 78 25.6 65 18.3 64 64 SSE 16 26 29.89 1012 10 16 0.00 0.00
8:57 pm 20:57 Sunny 75 23.9 65 18.3 71 71 SE 14 22 29.88 1012 10 16 0.00 0.00
9:57 pm 21:57 Clear 73 22.8 64 17.8 74 74 SE 17 28 29.87 1011 10 16 0.00 0.00
10:57 pm 22:57 Clear 72 22.2 63 17.2 73 73 SE 14 22 29.85 1011 10 16 0.00 0.00
11:57 pm 23:57 Clear 70 21.1 62 16.7 76 76 SE 13 20 29.83 1010 10 16 0.00 0.00

Powered by AerisWeather